Printer-friendly version

IAU Minor Planet Center

Minor Planet Center

MPEC 2000-T28: 2000 TV28

The following Minor Planet Electronic Circular may be linked-to from your own Web pages, but must not otherwise be redistributed electronically.


Read MPEC 2000-T27 Read MPEC 2000-T29


M.P.E.C. 2000-T28                                Issued 2000 Oct. 7, 15:16 UT

     The Minor Planet Electronic Circulars contain information on unusual
         minor planets and routine data on comets.  They are published
   on behalf of Commission 20 of the International Astronomical Union by the
          Minor Planet Center, Smithsonian Astrophysical Observatory,
                          Cambridge, MA 02138, U.S.A.

             Prepared using the Tamkin Foundation Computer Network

                              MPC@CFA.HARVARD.EDU
          URL http://cfa-www.harvard.edu/iau/mpc.html  ISSN 1523-6714

                                   2000 TV28

Observations:
     K00T28V* C2000 10 04.30797 00 39 27.62 -03 55 22.6          21.1 V      691
     K00T28V  C2000 10 04.36513 00 39 28.91 -03 55 11.4          20.9 V      691
     K00T28V  C2000 10 04.38596 00 39 29.37 -03 55 07.4          20.6 V      691
     K00T28V  C2000 10 05.25848 00 39 58.97 -03 52 12.3          20.5 V      691
     K00T28V  C2000 10 05.26246 00 39 59.03 -03 52 11.8          20.8 V      691
     K00T28V  C2000 10 05.26626 00 39 59.14 -03 52 11.0          20.5 V      691
     K00T28V HC2000 10 06.35515 00 40 34.27 -03 48 10.0          20.7 V      691
     K00T28V HC2000 10 06.35893 00 40 34.37 -03 48 09.1          20.3 V      691
     K00T28V HC2000 10 06.36274 00 40 34.51 -03 48 08.1          19.9 V      691
     K00T28V HC2000 10 07.27047 00 41 06.14 -03 44 28.0          20.0 V      691
     K00T28V HC2000 10 07.27476 00 41 06.36 -03 44 26.9          20.2 V      691
     K00T28V HC2000 10 07.27861 00 41 06.33 -03 44 25.4          20.0 V      691

Observer details:
691 Steward Observatory, Kitt Peak.  Observers J. A. Larsen, A. S. Descour,
    A. E. Gleason.  0.9-m Spacewatch telescope.

Orbital elements:
2000 TV28
Epoch 2000 Oct. 3.0 TT = JDT 2451820.5                  Spahr
M 351.33037              (2000.0)            P               Q
n   0.26161169     Peri.  315.39631     +0.79775822     -0.60214623
a   2.4212034      Node    81.65333     +0.56177212     +0.72314697
e   0.4821230      Incl.    1.83315     +0.21907512     +0.33834654
P   3.77           H   22.0           G   0.15
From 12 observations 2000 Oct. 4-7.

Ephemeris:
2000 TV28                a,e,i = 2.42, 0.48, 2                   q = 1.2539
Date    TT    R. A. (2000) Decl.     Delta      r     Elong.  Phase     V
2000 09 23    00 33.69   -04 14.2    0.334    1.334   170.7     6.9    20.8
2000 10 03    00 38.77   -03 59.0    0.304    1.302   172.0     6.1    20.5
2000 10 13    00 44.65   -03 13.9    0.286    1.278   166.8    10.3    20.5
2000 10 23    00 52.60   -01 48.3    0.280    1.262   160.3    15.4    20.6
2000 11 02    01 03.57   +00 19.5    0.284    1.254   154.2    20.1    20.8
2000 11 12    01 18.02   +03 02.7    0.300    1.256   148.9    24.0    21.0
2000 11 22    01 35.51   +06 05.8    0.326    1.267   144.2    27.1    21.3
2000 12 02    01 55.41   +09 13.5    0.364    1.286   139.9    29.6    21.6
2000 12 12    02 17.04   +12 13.1    0.414    1.313   135.8    31.5    22.0

Timothy B. Spahr             (C) Copyright 2000 MPC           M.P.E.C. 2000-T28

Read MPEC 2000-T27 Read MPEC 2000-T29


Our Web policy. Index to the CBAT/MPC/ICQ pages.


Valid HTML 4.01!